This demonstration page uses our WeatherBlox Daily Observations layout. Learn more.

Left ArrowRight Arrow

39.92423, -83.80882

Hourly Observations for February 7, 2022

Temp ( °F °C ) Dew Point ( °F °C ) Humidity (%) Winds ( mph kmh ) Pressure ( in mb ) Visibility ( mi km ) Precip ( " mm )
12:56 am 00:56 Clear 23 -5 N/A N/A S 5 7 30.24 1024 9 14 0.00 0.00
1:56 am 01:56 Clear with Mist and Fog 21 -6 N/A N/A Calm 30.24 1024 2 2 0.00 0.00
1:59 am 01:59 Clear with Mist and Fog 21 -6 N/A N/A Calm 30.27 1025 1 1 0.00 0.00
2:08 am 02:08 Clear with Freezing Fog 21 -6 N/A N/A Calm 30.27 1025 1 1 0.00 0.00
2:16 am 02:16 Clear with Freezing Fog 21 -6 N/A N/A Calm 30.27 1025 0 0 0.00 0.00
2:56 am 02:56 Clear with Freezing Fog 20 -6.7 19 -7.2 96 96 SW 3 6 30.23 1024 1 1 0.00 0.00
3:37 am 03:37 Clear with Mist and Fog 18 -8 18 -8 100 100 S 5 7 30.27 1025 1 2 0.00 0.00
3:45 am 03:45 Clear with Mist and Fog 19 -7 19 -7 100 100 S 5 7 30.26 1025 3 5 0.00 0.00
3:56 am 03:56 Clear with Mist and Fog 20 -6.7 20 -6.7 100 100 SSW 5 7 30.22 1023 4 6 0.00 0.00
4:56 am 04:56 Clear 25 -4 N/A N/A SSW 7 11 30.20 1023 9 14 0.00 0.00
5:56 am 05:56 Clear 25 -4 N/A N/A SW 7 11 30.20 1023 10 16 0.00 0.00
6:56 am 06:56 Clear 25 -3.9 25 -3.9 100 100 SW 9 15 30.20 1023 10 16 0.00 0.00
7:56 am 07:56 Sunny 25 -3.9 25 -3.9 100 100 SSW 8 13 30.20 1023 9 14 0.00 0.00
8:56 am 08:56 Sunny 27 -2.8 26 -3.3 96 96 SW 10 17 30.18 1022 9 14 0.00 0.00
9:56 am 09:56 Sunny 29 -1.7 25 -3.9 85 85 SSW 9 15 30.18 1022 10 16 0.00 0.00
10:56 am 10:56 Sunny 32 0 26 -3.3 79 79 W 9 15 30.18 1022 10 16 0.00 0.00
11:56 am 11:56 Sunny 34 1.1 26 -3.3 73 73 W 14 22 30.17 1022 10 16 0.00 0.00
12:56 pm 12:56 Mostly Sunny 34 1.1 26 -3.3 73 73 WSW 12 19 30.15 1021 10 16 0.00 0.00
1:56 pm 13:56 Sunny 34 1.1 24 -4.4 67 67 W 17 28 30.14 1021 10 16 0.00 0.00
2:56 pm 14:56 Sunny 32 0 22 -5.6 66 66 W 18 30 30.15 1021 10 16 0.00 0.00
3:56 pm 15:56 Sunny 31 -0.6 24 -4.4 76 76 WNW 14 22 30.16 1021 10 16 0.00 0.00
4:56 pm 16:56 Sunny 26 -3.3 18 -7.8 71 71 NW 13 20 30.18 1022 10 16 0.00 0.00
5:56 pm 17:56 Sunny 22 -5.6 16 -8.9 78 78 NW 13 20 30.19 1022 10 16 0.00 0.00
6:56 pm 18:56 Clear 20 -6.7 16 -8.9 85 85 W 9 15 30.21 1023 10 16 0.00 0.00
7:56 pm 19:56 Clear 19 -7.2 16 -8.9 88 88 W 8 13 30.21 1023 10 16 0.00 0.00
8:16 pm 20:16 Mostly Cloudy 19 -7 18 -8 93 93 W 7 11 30.25 1024 10 16 0.00 0.00
8:56 pm 20:56 Cloudy 20 -6.7 18 -7.8 92 92 W 6 9 30.20 1023 10 16 0.00 0.00
9:56 pm 21:56 Cloudy 22 -5.6 18 -7.8 85 85 WNW 10 17 30.19 1022 10 16 0.00 0.00
10:56 pm 22:56 Cloudy with Light Snow 21 -6.1 17 -8.3 85 85 WNW 9 15 30.18 1022 9 14 0.00 0.00
11:56 pm 23:56 Cloudy 20 -6.7 16 -8.9 85 85 W 10 17 30.19 1022 9 14 0.00 0.00

Powered by AerisWeather